This is the latest recevied weather packets stored in our database for station/object KC1IUC-15. If no packets are shown the sender has not sent any weather packets the latest 10 day(s).
| Time | Temp. | Humidity | Pressure | Rain* | Wind** | Luminosity | Snow |
|---|---|---|---|---|---|---|---|
| 1778095803 | 15.56° C | 94% | 1006.9 hPa | 0.51 mm | - | 69 W/m² | - |
| 1778095504 | 15.56° C | 93% | 1006.9 hPa | 0.51 mm | - | 66 W/m² | - |
| 1778095203 | 15° C | 93% | 1006.5 hPa | 0.51 mm | - | 103 W/m² | - |
| 1778094903 | 15° C | 93% | 1006.9 hPa | 0.76 mm | - | 95 W/m² | - |
| 1778094604 | 15° C | 93% | 1006.9 hPa | 1.02 mm | - | 86 W/m² | - |
| 1778094303 | 15° C | 94% | 1007.2 hPa | 1.27 mm | - | 88 W/m² | - |
| 1778094004 | 15° C | 94% | 1006.9 hPa | 1.27 mm | - | 133 W/m² | - |
| 1778093704 | 15° C | 94% | 1007.2 hPa | 1.52 mm | - | 164 W/m² | - |
| 1778093403 | 15° C | 94% | 1007.2 hPa | 1.52 mm | - | 149 W/m² | - |
| 1778093103 | 15° C | 93% | 1007.2 hPa | 1.78 mm | - | 117 W/m² | - |
| 1778092803 | 15° C | 93% | 1007.2 hPa | 1.78 mm | - | 133 W/m² | - |
| 1778092503 | 15° C | 93% | 1007.2 hPa | 1.78 mm | - | 158 W/m² | - |
| 1778092203 | 15° C | 93% | 1007.5 hPa | 2.03 mm | - | 114 W/m² | - |
| 1778091904 | 15° C | 93% | 1007.9 hPa | 2.03 mm | - | 144 W/m² | - |
| 1778091604 | 15° C | 92% | 1007.5 hPa | 2.29 mm | - | 153 W/m² | - |
| 1778091303 | 15° C | 92% | 1007.5 hPa | 2.03 mm | - | 129 W/m² | - |
| 1778091004 | 15° C | 92% | 1007.5 hPa | 1.78 mm | - | 78 W/m² | - |
| 1778090704 | 15° C | 92% | 1007.2 hPa | 1.52 mm | - | 72 W/m² | - |
| 1778090404 | 15° C | 91% | 1007.5 hPa | 1.78 mm | - | 68 W/m² | - |
| 1778090104 | 15.56° C | 91% | 1007.2 hPa | 1.52 mm | - | 87 W/m² | - |
| 1778089803 | 15.56° C | 90% | 1007.5 hPa | 1.52 mm | - | 105 W/m² | - |
| 1778089503 | 15.56° C | 89% | 1007.5 hPa | 1.27 mm | - | 91 W/m² | - |
| 1778089204 | 15.56° C | 88% | 1007.5 hPa | 1.02 mm | - | 110 W/m² | - |
| 1778088904 | 15.56° C | 87% | 1007.9 hPa | 1.02 mm | - | 104 W/m² | - |
| 1778088603 | 16.11° C | 86% | 1007.5 hPa | 0.76 mm | - | 109 W/m² | - |
* Rain latest hour (hover to see other rain measurements)
** Current wind speed in m/s (hover to see current wind gust speed)